Location: Gulgong NSW 2852, Australia
(32.2976°S, 149.5548°E)
Time: 01:48:27
(UTC+11:00)

ISS - Visible Passes

Search period start: 05 December 2021 00:00
Search period end: 15 December 2021 00:00
Orbit: 417 x 423 km, 51.6° (Epoch: 04 December)

Date Brightness Start Highest point End Pass type
(mag) Time Alt. Az. Time Alt. Az. Time Alt. Az.
11 Dec -0.4 04:50:44 10° S 04:52:20 13° SSE 04:53:55 10° ESE visible
11 Dec -0.8 23:10:23 17° S 23:10:23 17° S 23:11:49 10° SSE visible
12 Dec -2.3 20:42:25 10° N 20:44:51 19° NE 20:47:19 10° E visible
12 Dec -1.8 22:18:24 10° WNW 22:21:28 31° SW 22:24:34 10° SSE visible
13 Dec -1.6 04:50:58 10° SSW 04:54:04 31° SE 04:57:08 10° ENE visible
13 Dec -3.1 21:30:21 10° WNW 21:33:41 57° SW 21:37:03 10° SE visible
14 Dec -0.7 04:03:40 10° SSW 04:06:13 19° SE 04:08:44 10° E visible
14 Dec -3.8 20:42:34 10° NW 20:45:56 71° NE 20:49:20 10° SE visible
14 Dec -0.2 22:21:28 10° WSW 22:23:04 13° SSW 22:24:40 10° S visible
